Ban Ang, Thailand

5:36 AM ICT on February 24, 2017 (GMT +0700)
Rayong

Weather History for VTBU - October, 2012

Change the Weather History Date:

Wednesday, October 17, 2012

  Actual Average Record
Temperature  
Mean Temperature 80 °F -  
Max Temperature 86 °F 88 °F 93 °F (2004)
Min Temperature 75 °F 74 °F 75 °F (1997)
Cooling Degree Days 16    
Growing Degree Days 30 (Base 50)    
Moisture  
Dew Point 72 °F    
Average Humidity 77    
Maximum Humidity 94    
Minimum Humidity 58    
Precipitation  
Precipitation 0.00 in - - ()
Sea Level Pressure  
Sea Level Pressure 29.87 in    
Wind  
Wind Speed 2 mph ()    
Max Wind Speed 9 mph    
Max Gust Speed -    
Visibility 2.2 miles    
Events Rain , Thunderstorm    
Averages and records for this station are not official NWS values.
T = Trace of Precipitation, MM = Missing Value Source: Averaged Metar Reports

Daily Weather History Graph

Daily Weather History Graph

Search for Another Location

Airport or City:

Trip Planner

Search our weather history database for the weather conditions in past years. The results will help you decide how hot, cold, wet, or windy it might be!

Date:

Astronomy

Oct. 17, 2012 Rise Set
Actual Time 6:04 AM ICT 5:54 PM ICT
Civil Twilight 5:43 AM ICT 6:16 PM ICT
Nautical Twilight 5:18 AM ICT 6:40 PM ICT
Astronomical Twilight 4:53 AM ICT 7:05 PM ICT
Moon 7:36 AM ICT (10/17) 7:30 PM ICT (10/17)
Length of Visible Light 12h 32m
Length of Day
11h 49m
Waxing Crescent, 4% of the Moon is Illuminated
Oct 17
Waxing Crescent
Oct 22
First Quarter
Oct 30
Full
Nov 7
Last Quarter
Nov 14
New

Hourly Weather History & Observations

Time (ICT) Temp. Heat Index Dew Point Humidity Pressure Visibility Wind Dir Wind Speed Gust Speed Precip Events Conditions
1:00 AM 78.8 °F - 75.2 °F 89% 29.89 in 3.1 mi Calm Calm - N/A Thunderstorm Mostly Cloudy
1:30 AM 77.0 °F - 73.4 °F 89% 29.89 in 0.6 mi SSE 9.2 mph - N/A Rain , Thunderstorm Thunderstorms and Rain
2:00 AM 77.0 °F - 73.4 °F 89% 29.89 in 1.2 mi West 6.9 mph - N/A Rain , Thunderstorm Light Thunderstorms and Rain
2:30 AM 77.0 °F - 73.4 °F 89% 29.86 in 1.2 mi NNW 4.6 mph - N/A Rain , Thunderstorm Light Thunderstorms and Rain
3:00 AM 75.2 °F - 73.4 °F 94% 29.86 in 1.2 mi NE 3.5 mph - N/A Thunderstorm Mostly Cloudy
3:30 AM 77.0 °F - 73.4 °F 89% 29.86 in 1.2 mi Calm Calm - N/A Thunderstorm Mostly Cloudy
4:00 AM 77.0 °F - 73.4 °F 89% 29.86 in 1.9 mi Calm Calm - N/A   Mostly Cloudy
4:30 AM 77.0 °F - 73.4 °F 89% 29.86 in 1.9 mi Calm Calm - N/A Thunderstorm Mostly Cloudy
5:00 AM 77.0 °F - 73.4 °F 89% 29.86 in 1.9 mi Calm Calm - N/A   Mostly Cloudy
5:30 AM 77.0 °F - 73.4 °F 89% 29.86 in 1.9 mi Calm Calm - N/A Thunderstorm Mostly Cloudy
6:00 AM 77.0 °F - 75.2 °F 94% 29.89 in 1.2 mi Calm Calm - N/A   Mostly Cloudy
6:30 AM 78.8 °F - 71.6 °F 78% 29.89 in 1.2 mi Calm Calm - N/A   Mostly Cloudy
7:00 AM 80.6 °F 85.4 °F 73.4 °F 79% 29.89 in 1.2 mi Calm Calm - N/A   Mostly Cloudy
7:30 AM 82.4 °F 88.2 °F 73.4 °F 74% 29.92 in 0.9 mi NNW 4.6 mph - N/A   Mostly Cloudy
8:00 AM 82.4 °F 88.2 °F 73.4 °F 74% 29.92 in 1.2 mi Calm Calm - N/A   Mostly Cloudy
8:30 AM 82.4 °F 88.2 °F 73.4 °F 74% 29.92 in 1.2 mi Calm Calm - N/A   Mostly Cloudy
9:00 AM 82.4 °F 88.2 °F 73.4 °F 74% 29.92 in 2.5 mi Calm Calm - N/A   Mostly Cloudy
9:30 AM 82.4 °F 88.2 °F 73.4 °F 74% 29.95 in 2.5 mi Calm Calm - N/A   Mostly Cloudy
10:00 AM 84.2 °F 89.6 °F 71.6 °F 66% 29.92 in 3.1 mi Calm Calm - N/A   Mostly Cloudy
10:30 AM 86.0 °F 90.4 °F 69.8 °F 58% 29.92 in 3.1 mi Calm Calm - N/A   Mostly Cloudy
11:00 AM 84.2 °F 89.6 °F 71.6 °F 66% 29.92 in 3.1 mi Calm Calm - N/A   Mostly Cloudy
12:00 PM 84.2 °F 89.6 °F 71.6 °F 66% 29.89 in 3.1 mi Calm Calm - N/A Rain , Thunderstorm Light Thunderstorms and Rain
12:30 PM 82.4 °F 86.3 °F 69.8 °F 66% 29.89 in 3.1 mi North 6.9 mph - N/A Thunderstorm Thunderstorm
1:00 PM 82.4 °F 86.3 °F 69.8 °F 66% 29.86 in 2.5 mi NW 4.6 mph - N/A Thunderstorm Thunderstorm
1:30 PM 84.2 °F 89.6 °F 71.6 °F 66% 29.86 in 1.9 mi NW 4.6 mph - N/A Rain , Thunderstorm Thunderstorms and Rain
2:00 PM 80.6 °F 85.4 °F 73.4 °F 79% 29.86 in 1.2 mi North 9.2 mph - N/A Rain , Thunderstorm Thunderstorms and Rain
2:30 PM 80.6 °F 84.6 °F 71.6 °F 74% 29.83 in 1.9 mi NNE 4.6 mph - N/A Thunderstorm Thunderstorm
3:00 PM 82.4 °F 87.2 °F 71.6 °F 70% 29.83 in 2.5 mi North 3.5 mph - N/A Rain Light Rain
3:30 PM 80.6 °F 84.6 °F 71.6 °F 74% 29.80 in 2.5 mi North 3.5 mph - N/A Rain Light Rain
4:00 PM 80.6 °F 84.6 °F 71.6 °F 74% 29.80 in 2.5 mi NNE 3.5 mph - N/A Rain Light Rain
4:30 PM 80.6 °F 84.6 °F 71.6 °F 74% 29.77 in 2.5 mi Calm Calm - N/A   Mostly Cloudy
5:00 PM 82.4 °F 87.2 °F 71.6 °F 70% 29.80 in 2.5 mi Calm Calm - N/A   Mostly Cloudy
5:30 PM 82.4 °F 88.2 °F 73.4 °F 74% 29.80 in 2.5 mi NNW 3.5 mph - N/A   Mostly Cloudy
6:00 PM 82.4 °F 87.2 °F 71.6 °F 70% 29.80 in 2.5 mi Calm Calm - N/A   Mostly Cloudy
6:30 PM 82.4 °F 88.2 °F 73.4 °F 74% 29.80 in 2.5 mi NNE 2.3 mph - N/A   Mostly Cloudy
7:00 PM 80.6 °F 85.4 °F 73.4 °F 79% 29.83 in 2.5 mi NNE 3.5 mph - N/A   Mostly Cloudy
7:30 PM 82.4 °F 88.2 °F 73.4 °F 74% 29.83 in 2.5 mi NNE 2.3 mph - N/A   Mostly Cloudy
8:00 PM 80.6 °F 84.6 °F 71.6 °F 74% 29.83 in 2.5 mi Calm Calm - N/A   Mostly Cloudy
8:30 PM 80.6 °F 84.6 °F 71.6 °F 74% 29.86 in 2.5 mi NE 3.5 mph - N/A   Mostly Cloudy
9:00 PM 80.6 °F 84.6 °F 71.6 °F 74% 29.86 in 2.5 mi Calm Calm - N/A   Mostly Cloudy
9:30 PM 80.6 °F 84.6 °F 71.6 °F 74% 29.86 in 2.5 mi NE 2.3 mph - N/A   Mostly Cloudy
10:00 PM 78.8 °F - 71.6 °F 78% 29.89 in 2.5 mi NNE 2.3 mph - N/A   Mostly Cloudy
10:30 PM 78.8 °F - 71.6 °F 78% 29.89 in 3.1 mi North 2.3 mph - N/A   Mostly Cloudy
11:00 PM 78.8 °F - 71.6 °F 78% 29.89 in 3.1 mi NNE 2.3 mph - N/A   Mostly Cloudy
11:30 PM 78.8 °F - 71.6 °F 78% 29.89 in 3.1 mi Calm Calm - N/A   Mostly Cloudy